Regional Weather Roundup
Issued by NWS

Home | Current Version | Previous Version | Text Only | Print | Product List | Glossary On
Versions: 1 2 3 4 5 6 7 8 9 10 11 12 13 14 15 16 17 18 19 20 21 22 23 24 25 26 27 28 29 30 31 32 33 34 35 36 37 38 39 40 41 42 43 44 45 46 47 48 49 50
000
ASUS45 KSLC 281610
RWRUT

UTAH REGIONAL WEATHER ROUNDUP
NATIONAL WEATHER SERVICE SALT LAKE CITY UT
900 AM MST WED JAN 28 2015

UTZ001>011-023>025-281700-

NORTHERN UTAH

CITY           SKY/WX    TMP DP  RH WIND       PRES   REMARKS
BRIGHAM CITY   CLOUDY    42  37  84 CALM      30.28R
HILL AFB       CLOUDY    41  37  86 CALM      30.27R
LOGAN          CLOUDY    40  37  89 E5        30.26R
OGDEN          CLOUDY    42  40  92 SE5       30.27R
PROVO AIRPORT  CLOUDY    43  36  75 VRB3      30.28R
SALT LAKE CITY PTSUNNY   41  38  89 W3        30.27R
VERNAL         PTSUNNY   33  28  81 CALM      30.27R
WENDOVER       CLOUDY    37  30  75 CALM      30.28R
HEBER CITY     CLOUDY    36  32  87 CALM      30.26S
WEST JORDAN    CLOUDY    39  37  93 CALM      30.28R

$$

UTZ012>022-026-027-281700-

SOUTHERN/CENTRAL UTAH

CITY           SKY/WX    TMP DP  RH WIND       PRES   REMARKS
BLANDING       SUNNY     40  35  83 CALM      30.37R
BRYCE CANYON   SUNNY     26  24  92 W3        30.30S
CEDAR CITY     MOSUNNY   32  29  88 CALM      30.29R
DELTA          CLOUDY    38  35  89 S6        30.29R WCI  34
MILFORD        SUNNY     33  30  88 SE5       30.28S WCI  29
MOAB/CYNLANDS  SUNNY     33  30  88 CALM      30.27R
PRICE          CLOUDY    37  30  75 SW5       30.28R WCI  33
ST GEORGE      CLOUDY    41  37  87 CALM      30.32R
KANAB          MOSUNNY   34  34 100 NE3       30.34S

$$

REGIONAL REPORTS     COLORADO/ARIZONA

CITY           SKY/WX    TMP DP  RH WIND       PRES   REMARKS
CRAIG, CO      CLOUDY    31  30  96 CALM      30.25R
GRAND JUNCTION SUNNY     30  27  88 CALM      30.29R
RIFLE          MOSUNNY   29  26  89 CALM      30.30R
MONTROSE       SUNNY     37  29  72 NE3       30.30S
CORTEZ         MOSUNNY   33  30  88 E3        30.31R
PAGE, AZ       NOT AVBL
GRAND CANYON   MOSUNNY   29  27  92 CALM      30.32S
KINGMAN        PTSUNNY   45  44  97 SE5       30.27R FOG
FLAGSTAFF      MOSUNNY   29  27  92 CALM      30.32R

$$

REGIONAL REPORTS    NEVADA/IDAHO/WYOMING

CITY           SKY/WX    TMP DP  RH WIND       PRES   REMARKS
LAS VEGAS, NV  CLOUDY    52  44  74 S7        30.23R
ELY            SUNNY     33  31  92 S5        30.32R WCI  29
ELKO           CLOUDY    38  35  89 W5        30.32R WCI  34
POCATELLO, ID  LGT RAIN  38  38 100 SW12      30.28R FOG     WCI  30
BURLEY         CLOUDY    36  35  96 W7        30.28R FOG     WCI  30
EVANSTON, WY   PTSUNNY   34  31  88 SW7       30.25R WCI  28
ROCK SPRINGS   MOSUNNY   35  29  78 W23       30.21R WCI  23
KEMMERER       CLOUDY    34  32  93 W12       30.23R WCI  25

$$


USA.gov is the U.S. government's official web portal to all federal, state and local government web resources and services.